[[{"header":{"parameterUnit":"m.s-1","parameterCategory":1,"la1":30.2991,"la2":30.254,"lo1":-89.0895,"lo2":-89.0444,"dy":0.0017,"dx":0.0017,"nx":28,"ny":28,"refTime":"2025-07-06T21:00:00:Z","depth":0,"parameterNumber":2,"parameterNumberName":"U-component_of_WINDS"},"data":[0,0,0,0,0,0,0,0,0,0,0,0,0,0,0,0,0,0,0,0,0,0,0,0,0,0,0,0,0,0,0,0,0,0,0,0,0,0,0,0,0,0,0,0,0,0,0,0,0,0,0,0,0,0,0,0,0,0,3.6154,3.6156,0,3.6301,3.6303,3.6304,3.6272,3.6269,3.6267,3.6264,3.6416,3.6422,3.6429,0,0,0,0,0,0,0,0,0,0,0,0,0,3.5846,3.5852,3.6154,3.6156,3.6158,3.6301,3.6303,3.6305,3.6273,3.6269,3.6266,3.6263,3.6414,3.6422,3.6429,0,0,0,0,0,0,0,0,0,0,0,0,0,3.5985,3.5854,3.6154,3.6159,3.6161,3.63,3.6303,3.6305,3.6273,3.6269,3.6265,3.6261,3.6411,3.6421,3.6431,3.6574,0,0,3.6461,3.6465,0,0,0,0,0,0,0,0,3.5978,3.5997,3.6156,3.6159,3.6161,3.6264,3.625,3.6396,3.6274,3.6231,3.6264,3.6259,3.6369,3.6382,3.6419,3.6581,3.6588,3.6462,3.6468,3.6472,3.6475,0,0,0,0,0,0,0,3.5968,3.599,3.6212,3.6159,3.6162,3.6154,3.6169,3.6277,3.6321,3.6234,3.6232,3.625,3.6369,3.6409,3.6422,3.659,3.6461,3.647,3.6476,3.648,3.6876,3.6881,0,0,0,0,0,0,3.5956,3.5982,3.6208,3.6217,3.6057,3.6163,3.618,3.6235,3.632,3.6329,3.6253,3.6248,3.6394,3.641,3.6427,3.6599,3.6472,3.6481,3.6487,3.6872,3.6877,3.6882,0,0,0,0,0,0,3.595,3.5977,3.6202,3.6099,3.6127,3.6173,3.6235,3.624,3.628,3.6334,3.6342,3.6286,3.6392,3.6413,3.6537,3.6604,3.6486,3.6495,3.6866,3.6874,3.688,3.6946,0,0,0,0,0,0,3.5941,3.5974,3.603,3.6101,3.6133,3.631,3.6239,3.6246,3.6297,3.6291,3.6367,3.6375,3.639,3.6523,3.6547,3.6616,3.6502,3.6861,3.687,3.6878,3.6938,3.6955,3.6968,0,0,0,0,0,3.593,3.6043,3.6032,3.606,3.6203,3.6314,3.6332,3.6346,3.6303,3.6358,3.6393,3.6373,3.6593,3.6536,3.6563,3.6636,3.6856,3.6867,3.6877,3.6931,3.6951,3.6968,0,0,0,0,0,0,3.598,3.6053,3.6042,3.6181,3.6241,3.6308,3.6379,3.6367,3.6441,3.6433,3.6447,3.6465,3.6591,3.6626,3.6561,3.6778,3.6719,3.6735,3.6751,3.677,3.6785,3.6773,3.6511,0,0,0,0,0,3.6007,3.6091,3.615,3.6267,3.6298,3.6333,3.6382,3.6387,3.6451,3.6476,3.652,3.6582,3.6665,3.672,3.6799,3.6943,3.6959,3.7007,3.7022,3.7034,3.7047,3.7124,3.7146,3.6916,3.6916,3.6916,0,0,3.6064,3.6114,3.6166,3.6278,3.6326,3.6412,3.6355,3.6449,3.6513,3.6491,3.661,3.6644,3.6715,3.6849,3.691,3.6882,3.7114,3.7047,3.7056,3.7063,3.7137,3.7159,3.7178,3.6923,3.6922,3.6921,0,0,3.6211,3.6258,3.636,3.6408,3.648,3.6503,3.6527,3.6596,3.6617,3.6737,3.6721,3.6798,3.6941,3.6991,3.7036,3.7201,3.7185,3.7226,3.7305,3.738,3.7398,3.7414,3.7471,3.7492,3.724,3.724,3.724,0,3.6273,3.6402,3.6414,3.6509,3.6559,3.6541,3.6644,3.6691,3.6785,3.682,3.6786,3.6964,3.7011,3.7156,3.7196,3.7233,3.726,3.7217,3.7394,3.7411,3.7426,3.748,3.7502,3.7245,3.7244,3.7244,3.7243,0,3.6474,3.6564,3.6637,3.6727,3.6785,3.6884,3.6911,3.6968,3.6968,3.6994,3.7115,3.717,3.7259,3.7294,3.7296,3.744,3.7419,3.739,3.733,3.7452,3.7503,3.7525,3.7251,3.7249,3.7248,3.7247,0,0,3.6657,3.6752,3.6779,3.6818,3.6896,3.6965,3.7063,3.7149,3.7197,3.7263,3.7344,3.7465,3.7438,3.7488,3.7496,3.7562,3.7687,3.7524,3.7526,3.7551,3.7846,3.7866,3.789,3.7677,3.7681,3.7684,3.7839,0,3.6811,3.6982,3.6995,3.7149,3.7231,3.7215,3.73,3.7356,3.7383,3.7456,3.7486,3.757,3.7529,3.7559,3.7624,3.7658,3.7746,3.7647,3.7752,3.7756,3.7733,3.7918,3.794,3.8084,3.786,3.7863,3.7866,0,3.7013,3.7083,3.7245,3.7308,3.7343,3.7419,3.7499,3.757,3.7633,3.7647,3.7703,3.7701,3.78,3.7737,3.7874,3.7806,3.785,3.7873,3.7879,3.7889,3.7817,3.7931,3.813,3.8151,3.7898,3.7896,3.7893,0,3.7128,3.7263,3.7377,3.7412,3.749,3.7543,3.7578,3.7638,3.7688,3.7758,3.7791,3.7872,3.7916,3.7978,3.7997,3.795,3.8133,3.8072,3.8147,3.8147,3.8186,3.8183,3.8394,3.8217,3.8216,3.8216,3.8215,0,3.7297,3.7396,3.7429,3.7499,3.761,3.7624,3.7733,3.7765,3.7817,3.7893,3.7885,3.7956,3.7978,3.8053,3.8069,3.8179,3.8199,3.8213,3.8216,3.8213,3.8211,3.8241,3.8231,3.8222,3.822,3.8219,3.8218,0,3.7445,3.7471,3.7593,3.7657,3.7675,3.7753,3.7807,3.7874,3.7899,3.7995,3.8018,3.8057,3.8145,3.817,3.8276,3.8287,3.8415,3.841,3.8393,3.8393,3.8466,3.8458,3.8703,3.8735,3.8538,3.854,3.8541,0,3.755,3.7626,3.7697,3.7746,3.7783,3.7864,3.7914,3.7931,3.7985,3.8062,3.8119,3.8205,3.8275,3.8416,3.8454,3.8534,3.853,3.861,3.8542,3.8536,3.8529,3.8524,3.8531,3.8622,3.8624,3.8626,3.8627,0,3.7734,3.7743,3.7817,3.7895,3.7956,3.8018,3.8078,3.812,3.8144,3.8205,3.8294,3.8348,3.8455,3.854,3.8621,3.8657,3.8647,3.8649,3.867,3.8667,3.8654,3.866,3.8427,3.8643,3.8641,3.864,3.8639,3.8639,3.7863,3.7929,3.7988,3.807,3.8117,3.8173,3.8238,3.827,3.8345,3.8432,3.8438,3.8534,3.8594,3.8701,3.8742,3.8817,3.8793,3.8825,3.8833,3.884,3.8845,3.8643,3.8832,3.8832,3.8831,3.8831,3.8831,0,3.8045,3.8082,3.8158,3.8241,3.8305,3.8289,3.8354,3.8409,3.8493,3.855,3.8618,3.8719,3.8802,3.8845,3.8927,3.8979,3.8976,3.9,3.8995,3.9004,3.8862,3.8835,3.9001,3.9001,3.9001,3.9001,3.9001,3.9,3.8148,3.8257,3.8273,3.8405,3.8442,3.8535,3.8573,3.8625,3.867,3.8783,3.8851,3.8878,3.893,3.9015,3.909,3.91,3.913,3.9157,3.9165,3.9031,3.9014,3.8997,3.8971,3.9164,3.9164,3.93,3.9301,3.9302]},{"header":{"parameterUnit":"m.s-1","parameterCategory":1,"la1":30.2991,"la2":30.254,"lo1":-89.0895,"lo2":-89.0444,"dy":0.0017,"dx":0.0017,"nx":28,"ny":28,"refTime":"2025-07-06T21:00:00:Z","depth":0,"parameterNumber":3,"parameterNumberName":"V-component_of_WINDS"},"data":[0,0,0,0,0,0,0,0,0,0,0,0,0,0,0,0,0,0,0,0,0,0,0,0,0,0,0,0,0,0,0,0,0,0,0,0,0,0,0,0,0,0,0,0,0,0,0,0,0,0,0,0,0,0,0,0,0,0,-0.014,-0.0141,0,-0.0158,-0.0158,-0.0158,-0.0184,-0.0184,-0.0184,-0.0185,-0.0202,-0.0202,-0.0202,0,0,0,0,0,0,0,0,0,0,0,0,0,-0.0128,-0.0128,-0.014,-0.0141,-0.0141,-0.0158,-0.0158,-0.0159,-0.0183,-0.0184,-0.0185,-0.0185,-0.0202,-0.0202,-0.0202,0,0,0,0,0,0,0,0,0,0,0,0,0,-0.0138,-0.0128,-0.014,-0.0155,-0.0157,-0.0158,-0.0158,-0.0159,-0.0183,-0.0184,-0.0185,-0.0185,-0.0202,-0.0202,-0.0202,-0.019,0,0,-0.0202,-0.0202,0,0,0,0,0,0,0,0,-0.0137,-0.0138,-0.0153,-0.0154,-0.0156,-0.0169,-0.016,-0.0169,-0.0183,-0.0173,-0.0185,-0.0186,-0.019,-0.0192,-0.0193,-0.019,-0.0191,-0.0202,-0.0202,-0.0202,-0.0202,0,0,0,0,0,0,0,-0.0137,-0.0138,-0.0147,-0.0153,-0.0155,-0.0161,-0.0163,-0.0162,-0.0178,-0.0174,-0.0176,-0.0178,-0.0191,-0.0193,-0.0194,-0.0191,-0.0202,-0.0202,-0.0202,-0.0202,-0.0179,-0.0178,0,0,0,0,0,0,-0.0134,-0.0137,-0.0147,-0.0148,-0.0148,-0.0161,-0.0163,-0.0164,-0.0178,-0.0181,-0.0177,-0.0179,-0.0193,-0.0194,-0.0195,-0.0181,-0.0202,-0.0202,-0.0202,-0.018,-0.0179,-0.0178,0,0,0,0,0,0,-0.0133,-0.0134,-0.0146,-0.0143,-0.0145,-0.016,-0.0161,-0.0164,-0.0166,-0.018,-0.0183,-0.0176,-0.0193,-0.0195,-0.0191,-0.0182,-0.0202,-0.0203,-0.0181,-0.0179,-0.0179,-0.0153,0,0,0,0,0,0,-0.0133,-0.0134,-0.0129,-0.0143,-0.0145,-0.0142,-0.0161,-0.0164,-0.0166,-0.0169,-0.018,-0.0183,-0.0194,-0.019,-0.0191,-0.0182,-0.0203,-0.0181,-0.018,-0.0179,-0.0154,-0.0151,-0.0148,0,0,0,0,0,-0.0132,-0.0121,-0.0129,-0.013,-0.014,-0.0141,-0.0142,-0.0156,-0.0166,-0.0161,-0.017,-0.0182,-0.0183,-0.019,-0.019,-0.0182,-0.0182,-0.018,-0.0179,-0.0156,-0.0152,-0.0148,0,0,0,0,0,0,-0.0106,-0.0123,-0.0132,-0.0125,-0.0132,-0.0145,-0.014,-0.0151,-0.0155,-0.0157,-0.0173,-0.0175,-0.0169,-0.0175,-0.0183,-0.017,-0.0184,-0.0183,-0.0167,-0.0163,-0.0159,-0.0158,-0.0203,0,0,0,0,0,-0.01,-0.01,-0.0115,-0.0107,-0.011,-0.0124,-0.0126,-0.0136,-0.0143,-0.0145,-0.0154,-0.0161,-0.0162,-0.0163,-0.0165,-0.0156,-0.0159,-0.015,-0.0147,-0.0144,-0.0142,-0.0138,-0.0134,-0.0173,-0.0173,-0.0173,0,0,-0.0086,-0.0095,-0.0094,-0.0102,-0.0108,-0.0107,-0.0126,-0.0125,-0.0125,-0.0145,-0.0142,-0.0149,-0.0157,-0.015,-0.0148,-0.0155,-0.0133,-0.0142,-0.014,-0.014,-0.0136,-0.0132,-0.0129,-0.0172,-0.0172,-0.0173,0,0,-0.006,-0.0068,-0.0062,-0.0068,-0.0077,-0.0087,-0.0086,-0.0099,-0.0104,-0.0101,-0.0117,-0.0117,-0.0119,-0.0124,-0.0127,-0.0105,-0.0116,-0.0105,-0.0088,-0.0083,-0.008,-0.0077,-0.0069,-0.0066,-0.0104,-0.0104,-0.0104,0,-0.0042,-0.0042,-0.0057,-0.0055,-0.0058,-0.0078,-0.0072,-0.0077,-0.0086,-0.0088,-0.0096,-0.01,-0.0107,-0.0101,-0.0096,-0.0098,-0.0097,-0.0103,-0.0079,-0.0077,-0.0075,-0.0067,-0.0063,-0.0102,-0.0102,-0.0103,-0.0103,0,-0.0018,-0.0018,-0.0013,-0.0022,-0.0024,-0.002,-0.0035,-0.0036,-0.0046,-0.0055,-0.0052,-0.0061,-0.0066,-0.0065,-0.0075,-0.0061,-0.0066,-0.0076,-0.0091,-0.0069,-0.0062,-0.0059,-0.01,-0.0101,-0.0101,-0.0101,0,0,0.0025,0.0006,0.0008,0.0004,-0.0008,-0.0008,-0.0006,-0.0011,-0.001,-0.0017,-0.0014,-0.0017,-0.0027,-0.003,-0.0041,-0.0037,-0.0018,-0.0048,-0.0049,-0.0042,-0.0003,0.0006,0.001,-0.0026,-0.0025,-0.0025,-0.0002,0,0.0048,0.0052,0.0038,0.0046,0.0046,0.0027,0.0029,0.0022,0.0013,0.0012,0.0003,0.0002,-0.0012,-0.0014,-0.0011,-0.0021,-0.001,-0.0023,-0.0023,-0.0023,-0.002,0.0013,0.0023,0.0045,0.0,0.0001,0.0001,0,0.0077,0.0072,0.008,0.0066,0.0066,0.0069,0.0063,0.0062,0.0053,0.0046,0.0042,0.003,0.0032,0.0017,0.002,0.0012,0.001,0.0006,0.0006,0.0006,-0.0009,0.0015,0.0051,0.0055,0.0005,0.0005,0.0005,0,0.0108,0.0103,0.0107,0.0104,0.0089,0.0091,0.0085,0.0075,0.0073,0.0068,0.0066,0.0061,0.0059,0.0056,0.0042,0.0033,0.0047,0.0031,0.0042,0.0042,0.0047,0.0047,0.0084,0.0044,0.0044,0.0044,0.0044,0,0.0137,0.0143,0.0121,0.0124,0.0129,0.0112,0.0118,0.011,0.0102,0.0103,0.0086,0.0087,0.0068,0.0068,0.0057,0.0061,0.006,0.0055,0.0052,0.0057,0.0058,0.0057,0.0055,0.0045,0.0045,0.0045,0.0044,0,0.0174,0.0159,0.0163,0.0147,0.0144,0.0149,0.0136,0.0137,0.0127,0.0128,0.0128,0.0112,0.011,0.0095,0.009,0.0083,0.0092,0.0085,0.0095,0.0093,0.0105,0.0104,0.0143,0.0148,0.0105,0.0105,0.0105,0,0.0194,0.0197,0.0182,0.0182,0.0176,0.0175,0.0172,0.0155,0.0153,0.0143,0.0146,0.0143,0.0139,0.0137,0.0125,0.0121,0.0115,0.0129,0.0115,0.0119,0.0116,0.0117,0.0117,0.0133,0.0133,0.0134,0.0134,0,0.0231,0.0223,0.022,0.0214,0.0212,0.0206,0.02,0.02,0.0182,0.018,0.0178,0.0175,0.0169,0.0166,0.016,0.0153,0.0141,0.0138,0.0141,0.0146,0.0152,0.015,0.0104,0.0138,0.0138,0.0137,0.0137,0.0137,0.026,0.0262,0.0252,0.0249,0.0242,0.0237,0.0238,0.0227,0.0225,0.0219,0.0209,0.0208,0.0198,0.0188,0.0183,0.0182,0.0175,0.0178,0.0179,0.018,0.0183,0.0151,0.0181,0.0181,0.018,0.018,0.018,0,0.0297,0.0289,0.0286,0.0278,0.0275,0.0263,0.0255,0.0254,0.0253,0.0245,0.0242,0.0239,0.0235,0.0223,0.0218,0.022,0.0214,0.0219,0.022,0.0218,0.019,0.0188,0.0224,0.0224,0.0224,0.0224,0.0224,0.0224,0.0315,0.0319,0.031,0.031,0.0302,0.0301,0.0298,0.0292,0.0286,0.0283,0.028,0.0272,0.0262,0.0256,0.0253,0.0249,0.0249,0.0256,0.0251,0.0225,0.022,0.0216,0.0215,0.0256,0.0256,0.028,0.028,0.028]}]]